When you browse on this site, cookies collect data to enhance your experience and personalize the content and advertising you see.
Visit our Privacy Policy to learn more. By continuing to use the site, you agree to this use of cookies and data.
  • în România
  • Lista ţărilor
  • Pe 7 zile
  • Temperatura apei
  • Hartă satelitară
  • Meteo pe hartă
  • Widget-uri
  • user-avatar
    Intrare

    Meteo pe oră la Salzburg

    Astăzi, 20 Mai, Luni

    Timp Temperatura Precipitaţii Vânt Presiune Umiditate
    00:00 +3°C° 0 mm 2 m/s 616 mmHg 94%
    01:00 +2°C° 0 mm 2 m/s 616 mmHg 94%
    02:00 +2°C° 0.1 mm 2 m/s 616 mmHg 93%
    03:00 +2°C° 0.1 mm 2 m/s 615 mmHg 93%
    04:00 +1°C° 0.1 mm 2 m/s 615 mmHg 93%
    05:00 +4°C° 0.1 mm 1 m/s 616 mmHg 91%
    06:00 +5°C° 0.1 mm 1 m/s 616 mmHg 89%
    07:00 +5°C° 0.1 mm 0 m/s 616 mmHg 87%
    08:00 +6°C° 0.5 mm 0 m/s 617 mmHg 85%
    09:00 +7°C° 0.5 mm 0 m/s 617 mmHg 84%
    10:00 +8°C° 0.5 mm 0 m/s 618 mmHg 83%
    11:00 +8°C° 1.1 mm 0 m/s 618 mmHg 84%
    12:00 +8°C° 1.1 mm 0 m/s 618 mmHg 85%
    13:00 +10°C° 1.1 mm 1 m/s 618 mmHg 86%
    14:00 +9°C° 1.7 mm 1 m/s 618 mmHg 88%
    15:00 +8°C° 1.7 mm 1 m/s 617 mmHg 90%
    16:00 +8°C° 1.7 mm 1 m/s 617 mmHg 93%
    17:00 +7°C° 1.3 mm 1 m/s 617 mmHg 94%
    18:00 +6°C° 1.3 mm 0 m/s 617 mmHg 95%
    19:00 +5°C° 1.3 mm 0 m/s 617 mmHg 97%
    20:00 +5°C° 0.6 mm 0 m/s 617 mmHg 97%
    21:00 +5°C° 0.6 mm 1 m/s 617 mmHg 97%
    22:00 +5°C° 0.6 mm 1 m/s 617 mmHg 97%
    23:00 +5°C° 1 mm 1 m/s 618 mmHg 97%

    Mâine, 21 Mai, Marţi

    Timp Temperatura Precipitaţii Vânt Presiune Umiditate
    00:00 +5°C° 1 mm 1 m/s 618 mmHg 97%
    01:00 +4°C° 1 mm 1 m/s 618 mmHg 97%
    02:00 +4°C° 1.5 mm 1 m/s 618 mmHg 97%
    03:00 +4°C° 1.5 mm 1 m/s 618 mmHg 97%
    04:00 +4°C° 1.5 mm 1 m/s 618 mmHg 97%
    05:00 +4°C° 2.3 mm 1 m/s 618 mmHg 97%
    06:00 +4°C° 2.3 mm 1 m/s 618 mmHg 96%
    07:00 +4°C° 2.3 mm 1 m/s 619 mmHg 96%
    08:00 +4°C° 1.4 mm 1 m/s 619 mmHg 95%
    09:00 +5°C° 1.4 mm 1 m/s 620 mmHg 95%
    10:00 +5°C° 1.4 mm 1 m/s 620 mmHg 94%
    11:00 +5°C° 2.3 mm 1 m/s 620 mmHg 93%
    12:00 +6°C° 2.3 mm 1 m/s 621 mmHg 93%
    13:00 +6°C° 2.3 mm 1 m/s 621 mmHg 92%
    14:00 +5°C° 1.8 mm 1 m/s 621 mmHg 93%
    15:00 +5°C° 1.8 mm 1 m/s 621 mmHg 95%
    16:00 +5°C° 1.8 mm 1 m/s 621 mmHg 96%
    17:00 +5°C° 0.9 mm 1 m/s 621 mmHg 96%
    18:00 +4°C° 0.9 mm 1 m/s 621 mmHg 96%
    19:00 +4°C° 0.9 mm 1 m/s 621 mmHg 96%
    20:00 +4°C° 0.9 mm 1 m/s 622 mmHg 95%
    21:00 +4°C° 0.9 mm 1 m/s 622 mmHg 95%
    22:00 +4°C° 0.9 mm 1 m/s 623 mmHg 95%
    23:00 +4°C° 0.9 mm 1 m/s 623 mmHg 95%

    Poimâine, 22 Mai, Miercuri

    Timp Temperatura Precipitaţii Vânt Presiune Umiditate
    00:00 +4°C° 0.9 mm 1 m/s 623 mmHg 95%
    01:00 +4°C° 0.9 mm 1 m/s 623 mmHg 95%
    02:00 +4°C° 0.4 mm 1 m/s 623 mmHg 95%
    03:00 +4°C° 0.4 mm 1 m/s 623 mmHg 95%
    04:00 +4°C° 0.4 mm 1 m/s 623 mmHg 96%
    05:00 +4°C° 0.7 mm 1 m/s 623 mmHg 96%
    06:00 +5°C° 0.7 mm 1 m/s 623 mmHg 96%
    07:00 +5°C° 0.7 mm 1 m/s 623 mmHg 96%
    08:00 +5°C° 1.3 mm 1 m/s 624 mmHg 95%
    09:00 +6°C° 1.3 mm 1 m/s 624 mmHg 93%
    10:00 +6°C° 1.3 mm 1 m/s 625 mmHg 92%
    11:00 +6°C° 1.1 mm 1 m/s 625 mmHg 92%
    12:00 +6°C° 1.1 mm 1 m/s 625 mmHg 92%
    13:00 +6°C° 1.1 mm 1 m/s 625 mmHg 91%
    14:00 +7°C° 0.2 mm 1 m/s 625 mmHg 89%
    15:00 +7°C° 0.2 mm 1 m/s 626 mmHg 87%
    16:00 +8°C° 0.2 mm 1 m/s 626 mmHg 84%
    17:00 +7°C° 0.2 mm 1 m/s 626 mmHg 88%
    18:00 +6°C° 0.2 mm 1 m/s 626 mmHg 92%
    19:00 +6°C° 0.2 mm 1 m/s 626 mmHg 95%
    20:00 +5°C° 0 mm 1 m/s 626 mmHg 96%
    21:00 +4°C° 0 mm 1 m/s 626 mmHg 97%
    22:00 +3°C° 0 mm 1 m/s 626 mmHg 98%
    23:00 +3°C° 0 mm 1 m/s 626 mmHg 98%

    23 Mai, Joi

    Timp Temperatura Precipitaţii Vânt Presiune Umiditate
    00:00 +3°C° 0 mm 1 m/s 626 mmHg 98%
    01:00 +3°C° 0 mm 1 m/s 626 mmHg 98%
    02:00 +3°C° 0 mm 1 m/s 626 mmHg 98%
    03:00 +2°C° 0 mm 1 m/s 626 mmHg 97%
    04:00 +2°C° 0 mm 1 m/s 626 mmHg 97%
    05:00 +3°C° 0 mm 1 m/s 627 mmHg 94%
    06:00 +4°C° 0 mm 1 m/s 627 mmHg 91%
    07:00 +6°C° 0 mm 1 m/s 627 mmHg 88%
    08:00 +7°C° 0 mm 1 m/s 628 mmHg 78%
    09:00 +9°C° 0 mm 1 m/s 628 mmHg 68%
    10:00 +11°C° 0 mm 1 m/s 629 mmHg 58%
    11:00 +12°C° 0 mm 1 m/s 629 mmHg 52%
    12:00 +13°C° 0 mm 1 m/s 629 mmHg 45%
    13:00 +14°C° 0 mm 2 m/s 629 mmHg 39%
    14:00 +14°C° 0 mm 2 m/s 629 mmHg 42%
    15:00 +14°C° 0 mm 2 m/s 628 mmHg 45%
    16:00 +13°C° 0 mm 2 m/s 628 mmHg 47%
    17:00 +10°C° 0 mm 2 m/s 627 mmHg 59%
    18:00 +10°C° 0 mm 1 m/s 627 mmHg 71%
    19:00 +8°C° 0 mm 1 m/s 626 mmHg 82%
    20:00 +7°C° 0 mm 1 m/s 626 mmHg 86%
    21:00 +5°C° 0 mm 1 m/s 626 mmHg 91%
    22:00 +4°C° 0 mm 1 m/s 625 mmHg 95%
    23:00 +3°C° 0 mm 1 m/s 625 mmHg 94%

    24 Mai, Vineri

    Timp Temperatura Precipitaţii Vânt Presiune Umiditate
    00:00 +3°C° 0 mm 1 m/s 625 mmHg 93%
    01:00 +3°C° 0 mm 1 m/s 625 mmHg 92%
    02:00 +3°C° 0 mm 1 m/s 624 mmHg 91%
    03:00 +3°C° 0 mm 1 m/s 624 mmHg 89%
    04:00 +2°C° 0 mm 1 m/s 624 mmHg 87%
    05:00 +5°C° 0 mm 1 m/s 624 mmHg 78%
    06:00 +7°C° 0 mm 1 m/s 625 mmHg 69%
    07:00 +8°C° 0 mm 0 m/s 625 mmHg 60%
    08:00 +11°C° 0 mm 0 m/s 626 mmHg 52%
    09:00 +13°C° 0 mm 0 m/s 626 mmHg 45%
    10:00 +16°C° 0 mm 1 m/s 627 mmHg 38%
    11:00 +18°C° 0 mm 1 m/s 626 mmHg 36%
    12:00 +18°C° 0 mm 1 m/s 626 mmHg 34%
    13:00 +18°C° 0 mm 1 m/s 625 mmHg 33%
    14:00 +17°C° 0 mm 2 m/s 625 mmHg 36%
    15:00 +16°C° 0 mm 2 m/s 624 mmHg 39%
    16:00 +16°C° 0 mm 2 m/s 623 mmHg 43%
    17:00 +14°C° 0.5 mm 1 m/s 623 mmHg 58%
    18:00 +12°C° 0.5 mm 1 m/s 622 mmHg 72%
    19:00 +10°C° 0.5 mm 1 m/s 621 mmHg 87%
    20:00 +9°C° 0.6 mm 1 m/s 621 mmHg 89%
    21:00 +8°C° 0.6 mm 1 m/s 620 mmHg 91%
    22:00 +8°C° 0.6 mm 1 m/s 620 mmHg 93%
    23:00 +7°C° 0.2 mm 1 m/s 620 mmHg 94%

    25 Mai, Sâmbătă

    Timp Temperatura Precipitaţii Vânt Presiune Umiditate
    00:00 +6°C° 0.2 mm 1 m/s 619 mmHg 95%
    01:00 +6°C° 0.2 mm 1 m/s 619 mmHg 96%
    02:00 +6°C° 0.1 mm 1 m/s 619 mmHg 96%
    03:00 +5°C° 0.1 mm 1 m/s 619 mmHg 96%
    04:00 +5°C° 0.1 mm 1 m/s 619 mmHg 95%
    05:00 +6°C° 0.1 mm 1 m/s 619 mmHg 94%
    06:00 +7°C° 0.1 mm 1 m/s 620 mmHg 92%
    07:00 +7°C° 0.1 mm 0 m/s 620 mmHg 90%
    08:00 +8°C° 0.2 mm 1 m/s 621 mmHg 89%
    09:00 +8°C° 0.2 mm 1 m/s 621 mmHg 88%
    10:00 +9°C° 0.2 mm 1 m/s 621 mmHg 87%
    11:00 +8°C° 0.2 mm 2 m/s 621 mmHg 87%
    12:00 +8°C° 0.2 mm 2 m/s 622 mmHg 87%
    13:00 +8°C° 0.2 mm 2 m/s 622 mmHg 87%
    14:00 +8°C° 0.2 mm 2 m/s 622 mmHg 87%
    15:00 +8°C° 0.2 mm 2 m/s 622 mmHg 87%
    16:00 +8°C° 0.2 mm 2 m/s 622 mmHg 88%
    17:00 +8°C° 0.4 mm 1 m/s 622 mmHg 91%
    18:00 +7°C° 0.4 mm 1 m/s 622 mmHg 94%
    19:00 +7°C° 0.4 mm 1 m/s 622 mmHg 96%
    20:00 +7°C° 0.3 mm 1 m/s 622 mmHg 97%
    21:00 +6°C° 0.3 mm 1 m/s 623 mmHg 98%
    22:00 +6°C° 0.3 mm 1 m/s 623 mmHg 98%
    23:00 +6°C° 0.2 mm 1 m/s 623 mmHg 98%
    Arată mai mult